Glendive, MT

9:17 PM MDT on September 16, 2019 (GMT -0600)
Dawson Community

Weather History for KGDV - August, 2019

Change the Weather History Date:

Thursday, August 22, 2019

  Actual Average Record
Temperature  
Mean Temperature 74 °F 72 °F  
Max Temperature 89 °F 87 °F 99 °F (2010)
Min Temperature 59 °F 57 °F 44 °F (1996)
Degree Days  
Heating Degree Days 0 0  
Month to date heating degree days 43 0  
Year to date heating degree days 5623 4292  
Since 1 July heating degree days 57 0  
Cooling Degree Days 9 7  
Month to date cooling degree days 132 124  
Year to date cooling degree days 404 356  
Since 1 July cooling degree days 404 356  
Growing Degree Days 24 (Base 50)    
Moisture  
Dew Point 60 °F    
Average Humidity 63    
Maximum Humidity 83    
Minimum Humidity 40    
Precipitation  
Precipitation 0.00 in 0.05 in 0.17 in (2015)
Month to date precipitation 2.54 0.99  
Year to date precipitation 10.88 10.00  
Sea Level Pressure  
Sea Level Pressure 29.79 in    
Wind  
Wind Speed 11 mph (ESE)    
Max Wind Speed 24 mph    
Max Gust Speed 29 mph    
Visibility 10 miles    
Events      
T = Trace of Precipitation, MM = Missing Value Source: NWS Daily Summary

Daily Weather History Graph

Daily Weather History Graph

Search for Another Location

Airport or City:

Astronomy

Aug. 22, 2019 Rise Set
Actual Time 6:05 AM MDT 7:58 PM MDT
Civil Twilight 5:32 AM MDT 8:30 PM MDT
Nautical Twilight 4:52 AM MDT 9:10 PM MDT
Astronomical Twilight 4:07 AM MDT 9:54 PM MDT
Moon 11:22 PM MDT (8/22) 1:09 PM MDT (8/22)
Length of Visible Light 14h 58m
Length of Day
13h 53m
Waning Gibbous, 59% of the Moon is Illuminated
Aug 22
Waning Gibbous
Aug 23
Last Quarter
Aug 30
New
Sep 5
First Quarter
Sep 13
Full

Hourly Weather History & Observations

Time (MDT) Temp. Heat Index Dew Point Humidity Pressure Visibility Wind Dir Wind Speed Gust Speed Precip Events Conditions
12:56 AM 69.1 °F - 55.0 °F 61% 29.88 in 10.0 mi SE 8.1 mph - N/A   Clear
1:56 AM 64.9 °F - 55.0 °F 70% 29.86 in 10.0 mi East 9.2 mph - N/A   Clear
2:56 AM 63.0 °F - 55.0 °F 75% 29.85 in 10.0 mi East 3.5 mph - N/A   Clear
3:56 AM 61.0 °F - 54.0 °F 78% 29.84 in 10.0 mi East 6.9 mph - N/A   Clear
4:56 AM 60.1 °F - 55.0 °F 83% 29.84 in 10.0 mi East 6.9 mph - N/A   Clear
5:56 AM 60.1 °F - 55.0 °F 83% 29.84 in 10.0 mi East 8.1 mph - N/A   Clear
6:56 AM 61.0 °F - 55.9 °F 83% 29.84 in 10.0 mi East 6.9 mph - N/A   Clear
7:56 AM 66.0 °F - 57.0 °F 73% 29.82 in 10.0 mi ESE 10.4 mph - N/A   Clear
8:56 AM 68.0 °F - 59.0 °F 73% 29.82 in 10.0 mi East 9.2 mph - N/A   Clear
9:56 AM 72.0 °F - 61.0 °F 68% 29.81 in 10.0 mi East 10.4 mph - N/A   Clear
10:56 AM 77.0 °F - 62.1 °F 60% 29.79 in 10.0 mi SE 13.8 mph - N/A   Clear
11:56 AM 82.0 °F 83.4 °F 64.0 °F 54% 29.76 in 10.0 mi SE 12.7 mph 25.3 mph N/A   Clear
12:56 PM 86.0 °F 86.3 °F 62.1 °F 44% 29.73 in 10.0 mi SE 21.9 mph 28.8 mph N/A   Clear
1:56 PM 87.1 °F 87.5 °F 62.1 °F 43% 29.73 in 10.0 mi SE 19.6 mph - N/A   Clear
2:56 PM 89.1 °F 89.3 °F 62.1 °F 40% 29.72 in 10.0 mi SE 24.2 mph 27.6 mph N/A   Clear
3:56 PM 88.0 °F 88.4 °F 62.1 °F 42% 29.70 in 10.0 mi SE 21.9 mph 26.5 mph N/A   Clear
4:56 PM 87.1 °F 87.0 °F 61.0 °F 41% 29.71 in 10.0 mi SE 24.2 mph 27.6 mph N/A   Clear
5:56 PM 84.9 °F 85.9 °F 63.0 °F 48% 29.72 in 10.0 mi SE 20.7 mph - N/A   Clear
6:56 PM 82.0 °F 83.0 °F 62.1 °F 51% 29.73 in 10.0 mi SE 20.7 mph - N/A   Clear
7:56 PM 77.0 °F - 63.0 °F 62% 29.76 in 10.0 mi SE 13.8 mph - N/A   Clear
8:56 PM 75.0 °F - 62.1 °F 64% 29.78 in 10.0 mi SE 16.1 mph 19.6 mph N/A   Clear
9:56 PM 73.0 °F - 62.1 °F 68% 29.78 in 10.0 mi SE 15.0 mph - N/A   Clear
10:56 PM 71.1 °F - 62.1 °F 73% 29.77 in 10.0 mi SE 13.8 mph - N/A   Partly Cloudy
11:44 PM 71.6 °F - 62.6 °F 73% 29.86 in 10.0 mi SSE 10.4 mph - N/A   Mostly Cloudy
11:56 PM 71.1 °F - 63.0 °F 75% 29.80 in 10.0 mi SSE 13.8 mph - N/A   Overcast